PAL2531 RPLL-RJAA

Flight info

Callsign PAL2531
Flight time 3h 49m
Altitude 39000
Route CAB2R CAB R597 VIGOR A590 BUBDO Y83 MOE Y81 RUTAS
Aircraft A346/H-SDE2E3FGHIJ3J4J5M1RWXY/LB1D1

Departure

Time 2026-05-04 06:52
Airport Ninoy Aquino International Airport (RPLL)

Arrival

Time 2026-05-04 10:41
Airport Narita International Airport (RJAA)
Time Latitude Longitude Altitude Speed Heading
2026-05-04 06:14 14.50516 121.00728 93 ft 0 kts 277°
2026-05-04 06:33 14.50506 121.00811 93 ft 2 kts 277°
2026-05-04 06:34 14.50504 121.00826 93 ft 2 kts 278°
2026-05-04 06:34 14.50501 121.00842 93 ft 2 kts 278°
2026-05-04 06:34 14.50499 121.00857 93 ft 2 kts 276°
2026-05-04 06:34 14.50502 121.00872 93 ft 2 kts 241°
2026-05-04 06:35 14.50509 121.00885 93 ft 2 kts 239°
2026-05-04 06:36 14.50524 121.00914 93 ft 0 kts 244°
2026-05-04 06:40 14.50524 121.00912 93 ft 1 kts 244°
2026-05-04 06:40 14.50507 121.00880 93 ft 8 kts 240°
2026-05-04 06:41 14.50456 121.00829 93 ft 11 kts 208°
2026-05-04 06:41 14.50382 121.00793 93 ft 9 kts 224°
2026-05-04 06:41 14.50341 121.00725 93 ft 12 kts 239°
2026-05-04 06:41 14.50296 121.00646 93 ft 10 kts 239°
2026-05-04 06:42 14.50257 121.00578 93 ft 11 kts 240°
2026-05-04 06:42 14.50226 121.00523 93 ft 6 kts 239°
2026-05-04 06:42 14.50197 121.00471 93 ft 7 kts 239°
2026-05-04 06:44 14.50015 121.00143 93 ft 18 kts 240°
2026-05-04 06:44 14.49950 121.00026 93 ft 19 kts 240°
2026-05-04 06:44 14.49904 120.99973 93 ft 4 kts 206°
2026-05-04 06:45 14.49902 120.99972 93 ft 0 kts 205°
2026-05-04 06:48 14.49891 120.99970 93 ft 5 kts 191°
2026-05-04 06:48 14.49829 120.99990 93 ft 12 kts 136°
2026-05-04 06:49 14.49822 121.00075 93 ft 10 kts 66°
2026-05-04 06:50 14.49862 121.00154 93 ft 0 kts 60°
2026-05-04 06:51 14.49863 121.00155 93 ft 1 kts 60°
2026-05-04 06:51 14.49930 121.00275 93 ft 53 kts 60°
2026-05-04 06:51 14.50254 121.00855 93 ft 128 kts 60°
2026-05-04 06:51 14.50785 121.01816 261 ft 168 kts 60°
2026-05-04 06:52 14.51375 121.02879 818 ft 176 kts 60°
2026-05-04 06:52 14.52003 121.04006 1458 ft 186 kts 60°
2026-05-04 06:52 14.52646 121.05160 2133 ft 192 kts 60°
2026-05-04 06:52 14.53337 121.06401 2544 ft 206 kts 60°
2026-05-04 06:53 14.54078 121.07735 2906 ft 224 kts 60°
2026-05-04 06:53 14.54886 121.09190 3280 ft 245 kts 60°
2026-05-04 06:53 14.55796 121.10745 3789 ft 262 kts 51°
2026-05-04 06:53 14.57240 121.11906 4535 ft 268 kts 21°
2026-05-04 06:54 14.59057 121.12274 5410 ft 269 kts
2026-05-04 06:54 14.60945 121.12279 6263 ft 273 kts 358°
2026-05-04 06:54 14.62839 121.12214 7081 ft 276 kts 358°
2026-05-04 06:54 14.64786 121.12100 7916 ft 280 kts 354°
2026-05-04 06:55 14.66702 121.11884 8730 ft 283 kts 353°
2026-05-04 06:55 14.68670 121.11636 9545 ft 287 kts 353°
2026-05-04 06:55 14.70632 121.11392 10339 ft 290 kts 353°
2026-05-04 06:55 14.72683 121.11144 10902 ft 303 kts 353°
2026-05-04 06:56 14.74828 121.10890 11282 ft 320 kts 353°
2026-05-04 06:57 14.91202 121.08997 16063 ft 353 kts 353°
2026-05-04 06:58 14.93663 121.08714 16613 ft 361 kts 353°
2026-05-04 06:58 14.96227 121.08418 16922 ft 379 kts 353°
2026-05-04 06:58 14.98868 121.08117 17285 ft 393 kts 355°
2026-05-04 06:58 15.01618 121.08279 17870 ft 399 kts 15°
2026-05-04 06:59 15.04101 121.09572 18570 ft 402 kts 39°
2026-05-04 06:59 15.05943 121.11716 19271 ft 405 kts 54°
2026-05-04 06:59 15.07539 121.14098 19949 ft 408 kts 55°
2026-05-04 06:59 15.09186 121.16534 20573 ft 413 kts 54°
2026-05-04 07:01 15.21386 121.33854 24702 ft 440 kts 53°
2026-05-04 07:01 15.23200 121.36401 25242 ft 443 kts 53°
2026-05-04 07:02 15.25025 121.38963 25768 ft 447 kts 53°
2026-05-04 07:02 15.26877 121.41563 26291 ft 450 kts 53°
2026-05-04 07:02 15.28748 121.44192 26792 ft 454 kts 53°
2026-05-04 07:02 15.30603 121.46798 27274 ft 457 kts 53°
2026-05-04 07:03 15.32493 121.49454 27754 ft 461 kts 53°
2026-05-04 07:03 15.34412 121.52151 28227 ft 464 kts 53°
2026-05-04 07:03 15.36320 121.54835 28685 ft 467 kts 53°
2026-05-04 07:03 15.38264 121.57568 29143 ft 470 kts 53°
2026-05-04 07:04 15.40205 121.60300 29577 ft 474 kts 53°
2026-05-04 07:04 15.42154 121.63043 30121 ft 474 kts 53°
2026-05-04 07:04 15.44077 121.65752 30757 ft 471 kts 53°
2026-05-04 07:04 15.46026 121.68498 31388 ft 469 kts 53°
2026-05-04 07:05 15.47936 121.71190 31963 ft 468 kts 53°
2026-05-04 07:05 15.49852 121.73891 32511 ft 467 kts 53°
2026-05-04 07:05 15.51786 121.76618 33049 ft 466 kts 53°
2026-05-04 07:05 15.53677 121.79286 33565 ft 465 kts 53°
2026-05-04 07:06 15.57487 121.84666 34565 ft 463 kts 53°
2026-05-04 07:06 15.59381 121.87341 35041 ft 462 kts 53°
2026-05-04 07:06 15.61293 121.90041 35504 ft 461 kts 53°
2026-05-04 07:07 15.63169 121.92694 35937 ft 460 kts 53°
2026-05-04 07:08 15.76369 122.11377 38059 ft 463 kts 53°
2026-05-04 07:09 15.78257 122.14053 38276 ft 465 kts 53°
2026-05-04 07:09 15.80163 122.16755 38488 ft 466 kts 53°
2026-05-04 07:09 15.82077 122.19469 38689 ft 467 kts 53°
2026-05-04 07:09 15.83978 122.22167 38877 ft 468 kts 53°
2026-05-04 07:10 15.85901 122.24898 39003 ft 470 kts 53°
2026-05-04 07:12 16.01335 122.46842 39015 ft 471 kts 53°
2026-05-04 07:12 16.05168 122.52303 39015 ft 471 kts 53°
2026-05-04 07:13 16.09029 122.57806 39015 ft 471 kts 53°
2026-05-04 07:13 16.12882 122.63303 39014 ft 471 kts 53°
2026-05-04 07:14 16.22490 122.77028 39013 ft 471 kts 54°
2026-05-04 07:15 16.26317 122.82502 39013 ft 471 kts 54°
2026-05-04 07:15 16.30183 122.88036 39013 ft 471 kts 54°
2026-05-04 07:16 16.34018 122.93529 39014 ft 471 kts 54°
2026-05-04 07:16 16.37841 122.99011 39015 ft 471 kts 54°
2026-05-04 07:17 16.41697 123.04542 39015 ft 471 kts 54°
2026-05-04 07:17 16.45509 123.10017 39015 ft 471 kts 54°
2026-05-04 07:18 16.49365 123.15558 39015 ft 471 kts 54°
2026-05-04 07:18 16.53187 123.21054 39015 ft 471 kts 54°
2026-05-04 07:19 16.57079 123.26656 39015 ft 471 kts 54°
2026-05-04 07:19 16.60934 123.32208 39015 ft 471 kts 54°
2026-05-04 07:20 16.64790 123.37767 39015 ft 471 kts 54°
2026-05-04 07:20 16.68646 123.43330 39015 ft 471 kts 54°
2026-05-04 07:22 16.84085 123.65648 39015 ft 471 kts 54°
2026-05-04 07:23 16.87902 123.71175 39015 ft 471 kts 54°
2026-05-04 07:23 16.91753 123.76758 39015 ft 471 kts 54°
2026-05-04 07:24 16.95568 123.82293 39015 ft 471 kts 54°
2026-05-04 07:24 16.99441 123.87915 39015 ft 471 kts 54°
2026-05-04 07:26 17.14679 124.10086 39015 ft 471 kts 54°
2026-05-04 07:27 17.18486 124.15636 39015 ft 471 kts 54°
2026-05-04 07:27 17.22270 124.21158 39015 ft 471 kts 54°
2026-05-04 07:28 17.26091 124.26740 39015 ft 471 kts 54°
2026-05-04 07:28 17.29875 124.32273 39015 ft 471 kts 54°
2026-05-04 07:29 17.32794 124.36492 39015 ft 471 kts 52°
2026-05-04 07:29 17.36640 124.41287 39015 ft 471 kts 47°
2026-05-04 07:30 17.41341 124.46046 39015 ft 471 kts 40°
2026-05-04 07:30 17.46494 124.50337 39016 ft 471 kts 37°
2026-05-04 07:31 17.51739 124.54524 39015 ft 471 kts 37°
2026-05-04 07:33 17.72593 124.71264 39015 ft 471 kts 37°
2026-05-04 07:33 17.77809 124.75465 39015 ft 471 kts 37°
2026-05-04 07:34 17.83049 124.79688 39015 ft 471 kts 37°
2026-05-04 07:34 17.88259 124.83890 39015 ft 471 kts 37°
2026-05-04 07:35 17.93437 124.88070 39015 ft 471 kts 37°
2026-05-04 07:35 17.98669 124.92297 39015 ft 471 kts 37°
2026-05-04 07:36 18.03948 124.96564 39015 ft 471 kts 37°
2026-05-04 07:38 18.24841 125.13487 39015 ft 471 kts 37°
2026-05-04 07:38 18.30023 125.17693 39015 ft 471 kts 37°
2026-05-04 07:39 18.35200 125.21898 39015 ft 471 kts 37°
2026-05-04 07:39 18.40378 125.26106 39015 ft 471 kts 37°
2026-05-04 07:40 18.45549 125.30313 39015 ft 471 kts 37°
2026-05-04 07:40 18.50715 125.34518 39015 ft 471 kts 37°
2026-05-04 07:41 18.55843 125.38696 39015 ft 471 kts 37°
2026-05-04 07:41 18.61023 125.42921 39015 ft 471 kts 37°
2026-05-04 07:42 18.66200 125.47145 39015 ft 471 kts 37°
2026-05-04 07:42 18.71324 125.51330 39015 ft 471 kts 37°
2026-05-04 07:43 18.76518 125.55575 39015 ft 471 kts 37°
2026-05-04 07:43 18.81662 125.59782 39015 ft 471 kts 37°
2026-05-04 07:44 18.86816 125.64002 39015 ft 471 kts 37°
2026-05-04 07:44 18.91981 125.68232 39015 ft 471 kts 38°
2026-05-04 07:45 18.97135 125.72458 39015 ft 471 kts 38°
2026-05-04 07:45 19.02303 125.76698 39015 ft 471 kts 38°
2026-05-04 07:46 19.07437 125.80914 39015 ft 471 kts 38°
2026-05-04 07:46 19.12595 125.85154 39015 ft 470 kts 38°
2026-05-04 07:47 19.17764 125.89407 39015 ft 470 kts 38°
2026-05-04 07:49 19.38618 126.06596 39015 ft 470 kts 38°
2026-05-04 07:49 19.43803 126.10879 39015 ft 470 kts 38°
2026-05-04 07:50 19.48983 126.15161 39015 ft 470 kts 38°
2026-05-04 07:50 19.54212 126.19488 39015 ft 470 kts 38°
2026-05-04 07:51 19.59407 126.23789 39015 ft 470 kts 38°
2026-05-04 07:51 19.64562 126.28062 39015 ft 470 kts 38°
2026-05-04 07:52 19.69699 126.32323 39015 ft 470 kts 38°
2026-05-04 07:52 19.74824 126.36578 39015 ft 470 kts 38°
2026-05-04 07:54 19.95354 126.53657 39015 ft 470 kts 38°
2026-05-04 07:55 20.00486 126.57936 39015 ft 470 kts 38°
2026-05-04 07:55 20.05634 126.62231 39015 ft 470 kts 38°
2026-05-04 07:56 20.10746 126.66502 39015 ft 470 kts 38°
2026-05-04 07:56 20.15879 126.70791 39015 ft 470 kts 38°
2026-05-04 07:57 20.21025 126.75095 39015 ft 470 kts 38°
2026-05-04 07:57 20.26147 126.79384 39015 ft 470 kts 38°
2026-05-04 07:58 20.31270 126.83678 39015 ft 470 kts 38°
2026-05-04 07:58 20.36382 126.87965 39015 ft 470 kts 38°
2026-05-04 07:59 20.41522 126.92279 39015 ft 470 kts 38°
2026-05-04 07:59 20.46639 126.96579 39015 ft 470 kts 38°
2026-05-04 08:00 20.51770 127.00893 39015 ft 470 kts 38°
2026-05-04 08:02 20.72226 127.18135 39015 ft 470 kts 38°
2026-05-04 08:02 20.77330 127.22446 39015 ft 470 kts 38°
2026-05-04 08:03 20.82480 127.26801 39015 ft 470 kts 38°
2026-05-04 08:03 20.87572 127.31111 39015 ft 470 kts 38°
2026-05-04 08:04 20.92678 127.35438 39015 ft 470 kts 38°
2026-05-04 08:04 20.97785 127.39770 39015 ft 470 kts 38°
2026-05-04 08:05 21.02936 127.44077 39015 ft 470 kts 37°
2026-05-04 08:05 21.08152 127.48316 39015 ft 470 kts 37°
2026-05-04 08:06 21.13338 127.52537 39015 ft 470 kts 37°
2026-05-04 08:06 21.18523 127.56771 39015 ft 470 kts 37°
2026-05-04 08:08 21.39249 127.73759 39015 ft 470 kts 37°
2026-05-04 08:11 21.62544 127.92931 39015 ft 470 kts 37°
2026-05-04 08:11 21.70299 127.99331 39015 ft 470 kts 37°
2026-05-04 08:12 21.75480 128.03612 39015 ft 470 kts 37°
2026-05-04 08:12 21.80625 128.07866 39015 ft 470 kts 37°
2026-05-04 08:13 21.85819 128.12166 39015 ft 470 kts 37°
2026-05-04 08:13 21.90998 128.16457 39015 ft 470 kts 37°
2026-05-04 08:14 21.96135 128.20717 39015 ft 470 kts 37°
2026-05-04 08:16 22.16812 128.37906 39015 ft 470 kts 37°
2026-05-04 08:16 22.21980 128.42212 39015 ft 470 kts 37°
2026-05-04 08:17 22.27140 128.46516 39015 ft 470 kts 37°
2026-05-04 08:17 22.32282 128.50809 39015 ft 470 kts 37°
2026-05-04 08:19 22.52894 128.68059 39015 ft 470 kts 38°
2026-05-04 08:20 22.58039 128.72376 39015 ft 470 kts 38°
2026-05-04 08:20 22.63184 128.76695 39015 ft 470 kts 38°
2026-05-04 08:21 22.68320 128.81014 39015 ft 470 kts 38°
2026-05-04 08:21 22.73469 128.85347 39015 ft 470 kts 38°
2026-05-04 08:22 22.78625 128.89690 39015 ft 470 kts 38°
2026-05-04 08:24 22.99212 129.07077 39015 ft 470 kts 37°
2026-05-04 08:24 23.04496 129.11215 39015 ft 470 kts 35°
2026-05-04 08:25 23.09844 129.15269 39015 ft 470 kts 35°
2026-05-04 08:25 23.15178 129.19321 39015 ft 470 kts 35°
2026-05-04 08:27 23.36541 129.35619 39015 ft 470 kts 35°
2026-05-04 08:28 23.41775 129.39624 39015 ft 470 kts 35°
2026-05-04 08:28 23.47117 129.43715 39015 ft 470 kts 35°
2026-05-04 08:29 23.52441 129.47797 39015 ft 470 kts 35°
2026-05-04 08:31 23.73725 129.64156 39015 ft 470 kts 35°
2026-05-04 08:33 23.95032 129.80598 39015 ft 470 kts 35°
2026-05-04 08:35 24.16316 129.97093 39015 ft 470 kts 35°
2026-05-04 08:35 24.21630 130.01224 39015 ft 470 kts 35°
2026-05-04 08:37 24.40284 130.15649 39015 ft 470 kts 34°
2026-05-04 08:38 24.45682 130.19688 39015 ft 470 kts 34°
2026-05-04 08:38 24.51035 130.23708 39015 ft 470 kts 34°
2026-05-04 08:40 24.72532 130.39932 39015 ft 470 kts 34°
2026-05-04 08:41 24.77921 130.44012 39015 ft 470 kts 34°
2026-05-04 08:41 24.83261 130.48058 39015 ft 470 kts 34°
2026-05-04 08:42 24.88630 130.52132 39015 ft 470 kts 34°
2026-05-04 08:42 24.94017 130.56223 39015 ft 470 kts 34°
2026-05-04 08:43 24.99380 130.60300 39015 ft 470 kts 34°
2026-05-04 08:43 25.04735 130.64377 39015 ft 470 kts 34°
2026-05-04 08:44 25.10111 130.68472 39015 ft 470 kts 34°
2026-05-04 08:46 25.31514 130.84824 39015 ft 470 kts 34°
2026-05-04 08:46 25.36874 130.88930 39015 ft 470 kts 34°
2026-05-04 08:47 25.42233 130.93041 39015 ft 470 kts 34°
2026-05-04 08:47 25.47564 130.97134 39015 ft 470 kts 34°
2026-05-04 08:48 25.52952 131.01276 39015 ft 470 kts 34°
2026-05-04 08:48 25.58282 131.05377 39015 ft 470 kts 34°
2026-05-04 08:49 25.63641 131.09506 39015 ft 470 kts 34°
2026-05-04 08:50 25.82314 131.23935 39015 ft 470 kts 34°
2026-05-04 08:51 25.87559 131.28250 39015 ft 470 kts 38°
2026-05-04 08:51 25.92613 131.32803 39015 ft 470 kts 39°
2026-05-04 08:52 25.97674 131.37396 39015 ft 470 kts 39°
2026-05-04 08:52 26.02707 131.41963 39015 ft 470 kts 39°
2026-05-04 08:54 26.22887 131.60304 39015 ft 470 kts 39°
2026-05-04 08:55 26.27914 131.64885 39015 ft 470 kts 39°
2026-05-04 08:55 26.32970 131.69499 39015 ft 470 kts 39°
2026-05-04 09:01 26.85767 132.17999 39015 ft 470 kts 39°
2026-05-04 09:01 26.90803 132.22658 39015 ft 470 kts 39°
2026-05-04 09:02 26.95826 132.27309 39015 ft 470 kts 39°
2026-05-04 09:02 27.00823 132.31941 39015 ft 470 kts 39°
2026-05-04 09:03 27.05857 132.36614 39015 ft 470 kts 39°
2026-05-04 09:03 27.10864 132.41267 39015 ft 470 kts 39°
2026-05-04 09:04 27.15891 132.45944 39015 ft 470 kts 39°
2026-05-04 09:04 27.20919 132.50629 39015 ft 470 kts 39°
2026-05-04 09:05 27.25921 132.55292 39015 ft 470 kts 39°
2026-05-04 09:05 27.30920 132.59961 39015 ft 469 kts 39°
2026-05-04 09:06 27.35926 132.64641 39015 ft 469 kts 39°
2026-05-04 09:08 27.55941 132.83414 39015 ft 469 kts 40°
2026-05-04 09:08 27.60930 132.88106 39015 ft 469 kts 40°
2026-05-04 09:09 27.65953 132.92837 39015 ft 469 kts 40°
2026-05-04 09:09 27.70952 132.97553 39015 ft 469 kts 40°
2026-05-04 09:10 27.75914 133.02240 39015 ft 469 kts 40°
2026-05-04 09:10 27.80907 133.06961 39015 ft 469 kts 40°
2026-05-04 09:11 27.85900 133.11690 39015 ft 469 kts 40°
2026-05-04 09:11 27.90885 133.16423 39015 ft 469 kts 40°
2026-05-04 09:12 27.95854 133.21164 39015 ft 469 kts 40°
2026-05-04 09:14 28.15734 133.40205 39015 ft 469 kts 40°
2026-05-04 09:14 28.20722 133.44998 39015 ft 469 kts 40°
2026-05-04 09:15 28.25664 133.49753 39015 ft 469 kts 40°
2026-05-04 09:15 28.30642 133.54547 39015 ft 469 kts 40°
2026-05-04 09:17 28.52941 133.76111 39015 ft 469 kts 40°
2026-05-04 09:18 28.57875 133.80899 39015 ft 469 kts 40°
2026-05-04 09:18 28.62830 133.85707 39015 ft 469 kts 40°
2026-05-04 09:19 28.67789 133.90526 39015 ft 469 kts 40°
2026-05-04 09:19 28.72741 133.95348 39015 ft 469 kts 40°
2026-05-04 09:20 28.77698 134.00183 39015 ft 469 kts 40°
2026-05-04 09:20 28.82609 134.04979 39015 ft 469 kts 40°
2026-05-04 09:21 28.87581 134.09840 39015 ft 469 kts 40°
2026-05-04 09:21 28.92496 134.14653 39015 ft 469 kts 40°
2026-05-04 09:22 28.97438 134.19499 39015 ft 469 kts 40°
2026-05-04 09:22 29.02371 134.24342 39015 ft 469 kts 40°
2026-05-04 09:23 29.07290 134.29178 39015 ft 469 kts 40°
2026-05-04 09:23 29.12240 134.34052 39015 ft 469 kts 40°
2026-05-04 09:25 29.31950 134.53516 39015 ft 469 kts 40°
2026-05-04 09:26 29.36868 134.58388 39015 ft 469 kts 40°
2026-05-04 09:26 29.41775 134.63257 39015 ft 469 kts 40°
2026-05-04 09:27 29.46719 134.68170 39015 ft 469 kts 41°
2026-05-04 09:27 29.51638 134.73064 39015 ft 469 kts 41°
2026-05-04 09:28 29.56485 134.77892 39015 ft 469 kts 41°
2026-05-04 09:28 29.61398 134.82793 39015 ft 469 kts 41°
2026-05-04 09:29 29.66306 134.87695 39015 ft 469 kts 41°
2026-05-04 09:29 29.71208 134.92598 39015 ft 469 kts 41°
2026-05-04 09:30 29.76111 134.97508 39015 ft 469 kts 41°
2026-05-04 09:30 29.81019 135.02431 39015 ft 469 kts 41°
2026-05-04 09:31 29.85911 135.07344 39015 ft 469 kts 41°
2026-05-04 09:31 29.90832 135.12293 39015 ft 469 kts 41°
2026-05-04 09:32 29.95717 135.17213 39015 ft 469 kts 41°
2026-05-04 09:34 30.15314 135.36971 39015 ft 469 kts 40°
2026-05-04 09:34 30.20282 135.41855 39015 ft 469 kts 40°
2026-05-04 09:35 30.25222 135.46724 39015 ft 469 kts 40°
2026-05-04 09:35 30.30168 135.51613 39015 ft 469 kts 40°
2026-05-04 09:37 30.49942 135.71248 39015 ft 469 kts 41°
2026-05-04 09:38 30.54880 135.76167 39015 ft 469 kts 41°
2026-05-04 09:38 30.59784 135.81061 39015 ft 469 kts 41°
2026-05-04 09:39 30.64735 135.86008 39015 ft 469 kts 41°
2026-05-04 09:39 30.69635 135.90912 39015 ft 469 kts 41°
2026-05-04 09:40 30.74576 135.95862 39015 ft 469 kts 41°
2026-05-04 09:40 30.79505 136.00807 39015 ft 469 kts 41°
2026-05-04 09:42 30.99186 136.20627 39015 ft 469 kts 41°
2026-05-04 09:43 31.04102 136.25595 39015 ft 469 kts 41°
2026-05-04 09:43 31.09012 136.30563 39015 ft 469 kts 41°
2026-05-04 09:44 31.13931 136.35548 39015 ft 469 kts 41°
2026-05-04 09:46 31.33525 136.55481 39015 ft 469 kts 41°
2026-05-04 09:46 31.38427 136.60489 39015 ft 469 kts 41°
2026-05-04 09:47 31.43346 136.65518 39015 ft 469 kts 41°
2026-05-04 09:49 31.62907 136.85620 39015 ft 469 kts 41°
2026-05-04 09:51 31.79991 137.03284 39015 ft 469 kts 41°
2026-05-04 09:51 31.84868 137.08345 39015 ft 469 kts 41°
2026-05-04 09:52 31.89728 137.13394 39015 ft 469 kts 41°
2026-05-04 09:52 31.94615 137.18478 39015 ft 469 kts 41°
2026-05-04 09:53 31.99484 137.23553 39015 ft 469 kts 41°
2026-05-04 09:53 32.04364 137.28645 39015 ft 469 kts 41°
2026-05-04 09:54 32.09207 137.33707 39015 ft 469 kts 41°
2026-05-04 09:54 32.14109 137.38837 39015 ft 469 kts 41°
2026-05-04 09:55 32.18948 137.43909 39015 ft 469 kts 41°
2026-05-04 09:55 32.23797 137.48999 39015 ft 469 kts 41°
2026-05-04 09:56 32.28676 137.54128 39015 ft 469 kts 41°
2026-05-04 09:56 32.33543 137.59253 39015 ft 469 kts 41°
2026-05-04 09:57 32.38386 137.64360 39015 ft 469 kts 41°
2026-05-04 09:57 32.43219 137.69464 39015 ft 469 kts 42°
2026-05-04 09:58 32.48098 137.74625 39015 ft 469 kts 42°
2026-05-04 09:58 32.52942 137.79758 39015 ft 469 kts 42°
2026-05-04 10:00 32.72290 138.00331 39015 ft 469 kts 42°
2026-05-04 10:04 33.05559 138.37270 39015 ft 469 kts 44°
2026-05-04 10:04 33.10246 138.42668 39015 ft 469 kts 44°
2026-05-04 10:05 33.14954 138.48096 39015 ft 469 kts 44°
2026-05-04 10:05 33.19670 138.53542 39015 ft 469 kts 44°
2026-05-04 10:06 33.24316 138.58914 39015 ft 469 kts 44°
2026-05-04 10:06 33.29001 138.64343 39015 ft 469 kts 44°
2026-05-04 10:08 33.45296 138.83292 39015 ft 469 kts 44°
2026-05-04 10:08 33.49971 138.88748 39015 ft 469 kts 44°
2026-05-04 10:09 33.54586 138.94145 38670 ft 463 kts 44°
2026-05-04 10:09 33.56878 138.96829 38127 ft 462 kts 44°
2026-05-04 10:09 33.59176 138.99524 37639 ft 460 kts 44°
2026-05-04 10:10 33.61457 139.02197 37161 ft 457 kts 44°
2026-05-04 10:10 33.63715 139.04842 36629 ft 457 kts 44°
2026-05-04 10:10 33.65971 139.07483 36057 ft 457 kts 44°
2026-05-04 10:10 33.68230 139.10129 35462 ft 457 kts 44°
2026-05-04 10:11 33.70517 139.12813 34832 ft 458 kts 44°
2026-05-04 10:11 33.72784 139.15477 34189 ft 460 kts 44°
2026-05-04 10:11 33.75058 139.18150 33535 ft 461 kts 44°
2026-05-04 10:11 33.77337 139.20834 32871 ft 462 kts 44°
2026-05-04 10:12 33.79625 139.23531 32197 ft 464 kts 44°
2026-05-04 10:12 33.81928 139.26247 31507 ft 465 kts 44°
2026-05-04 10:12 33.84223 139.28955 30812 ft 466 kts 44°
2026-05-04 10:12 33.86520 139.31670 30102 ft 468 kts 44°
2026-05-04 10:13 33.88841 139.34413 29358 ft 469 kts 44°
2026-05-04 10:13 33.91169 139.37169 28655 ft 469 kts 44°
2026-05-04 10:13 33.93487 139.39916 28160 ft 464 kts 44°
2026-05-04 10:13 33.95770 139.42622 27671 ft 459 kts 44°
2026-05-04 10:14 33.98033 139.45309 27145 ft 456 kts 44°
2026-05-04 10:14 34.00272 139.47971 26612 ft 452 kts 44°
2026-05-04 10:16 34.14545 139.67267 24004 ft 435 kts 51°
2026-05-04 10:16 34.16451 139.70151 23751 ft 433 kts 51°
2026-05-04 10:16 34.18357 139.73033 23497 ft 432 kts 51°
2026-05-04 10:16 34.20211 139.75836 23250 ft 430 kts 51°
2026-05-04 10:17 34.22075 139.78654 23000 ft 428 kts 51°
2026-05-04 10:17 34.23949 139.81490 22747 ft 427 kts 51°
2026-05-04 10:19 34.36726 140.00873 20999 ft 416 kts 51°
2026-05-04 10:19 34.38521 140.03603 20750 ft 414 kts 51°
2026-05-04 10:19 34.40317 140.06339 20499 ft 413 kts 51°
2026-05-04 10:19 34.42093 140.09045 20250 ft 411 kts 51°
2026-05-04 10:20 34.43868 140.11752 20000 ft 409 kts 51°
2026-05-04 10:20 34.45594 140.14484 19751 ft 408 kts 54°
2026-05-04 10:20 34.47205 140.17337 19499 ft 406 kts 57°
2026-05-04 10:20 34.48701 140.20193 19252 ft 405 kts 58°
2026-05-04 10:21 34.50193 140.23084 19002 ft 403 kts 58°
2026-05-04 10:21 34.51673 140.25958 18753 ft 402 kts 58°
2026-05-04 10:21 34.53146 140.28821 18504 ft 400 kts 58°
2026-05-04 10:21 34.54604 140.31653 18257 ft 399 kts 58°
2026-05-04 10:22 34.57540 140.37357 17756 ft 396 kts 58°
2026-05-04 10:22 34.58982 140.40158 17508 ft 395 kts 58°
2026-05-04 10:22 34.60432 140.42979 17258 ft 393 kts 58°
2026-05-04 10:23 34.61886 140.45808 17007 ft 392 kts 58°
2026-05-04 10:23 34.63310 140.48585 16761 ft 390 kts 58°
2026-05-04 10:25 34.74427 140.66237 14595 ft 378 kts 21°
2026-05-04 10:25 34.76893 140.67334 14352 ft 377 kts 20°
2026-05-04 10:25 34.79342 140.68427 14102 ft 375 kts 20°
2026-05-04 10:25 34.81760 140.69544 13854 ft 374 kts 21°
2026-05-04 10:26 34.84174 140.70691 13605 ft 373 kts 21°
2026-05-04 10:26 34.86578 140.71855 13355 ft 371 kts 22°
2026-05-04 10:26 34.88953 140.73019 13106 ft 370 kts 22°
2026-05-04 10:26 34.91351 140.74202 12855 ft 369 kts 22°
2026-05-04 10:27 34.93708 140.75368 12606 ft 367 kts 22°
2026-05-04 10:27 34.96055 140.76532 12358 ft 366 kts 22°
2026-05-04 10:27 34.98408 140.77702 12107 ft 365 kts 22°
2026-05-04 10:27 35.00749 140.78865 11858 ft 363 kts 22°
2026-05-04 10:28 35.03085 140.80028 11608 ft 362 kts 22°
2026-05-04 10:28 35.05419 140.81192 11357 ft 361 kts 22°
2026-05-04 10:28 35.07760 140.82359 11138 ft 359 kts 22°
2026-05-04 10:28 35.10058 140.83505 11241 ft 360 kts 22°
2026-05-04 10:29 35.12358 140.84651 11321 ft 361 kts 22°
2026-05-04 10:29 35.14127 140.85535 11348 ft 361 kts 22°
2026-05-04 10:29 35.16381 140.86871 11335 ft 358 kts 27°
2026-05-04 10:29 35.18728 140.87830 10811 ft 357 kts
2026-05-04 10:30 35.21146 140.87436 10335 ft 352 kts 338°
2026-05-04 10:30 35.23161 140.85791 9925 ft 346 kts 316°
2026-05-04 10:30 35.24818 140.83708 9555 ft 341 kts 314°
2026-05-04 10:30 35.26419 140.81723 9197 ft 336 kts 316°
2026-05-04 10:31 35.28131 140.79778 8833 ft 331 kts 318°
2026-05-04 10:31 35.29850 140.77962 8483 ft 326 kts 320°
2026-05-04 10:32 35.40006 140.68069 6556 ft 298 kts 322°
2026-05-04 10:33 35.41633 140.66509 6260 ft 293 kts 322°
2026-05-04 10:33 35.43222 140.64980 5974 ft 289 kts 322°
2026-05-04 10:33 35.44779 140.63449 5693 ft 285 kts 319°
2026-05-04 10:33 35.46229 140.61841 5425 ft 280 kts 317°
2026-05-04 10:34 35.47639 140.60219 5135 ft 275 kts 314°
2026-05-04 10:34 35.48904 140.58479 4852 ft 270 kts 310°
2026-05-04 10:34 35.50153 140.56795 4595 ft 265 kts 318°
2026-05-04 10:34 35.51580 140.55452 4517 ft 253 kts 328°
2026-05-04 10:35 35.53048 140.54388 4508 ft 238 kts 331°
2026-05-04 10:35 35.54435 140.53444 4501 ft 219 kts 331°
2026-05-04 10:35 35.55722 140.52554 4324 ft 206 kts 330°
2026-05-04 10:35 35.56943 140.51692 4050 ft 200 kts 330°
2026-05-04 10:36 35.58134 140.50836 3782 ft 194 kts 330°
2026-05-04 10:36 35.59267 140.50015 3528 ft 188 kts 329°
2026-05-04 10:36 35.60373 140.49211 3282 ft 183 kts 329°
2026-05-04 10:36 35.61463 140.48416 3046 ft 180 kts 329°
2026-05-04 10:37 35.62532 140.47638 2817 ft 180 kts 329°
2026-05-04 10:37 35.63613 140.46851 2582 ft 179 kts 329°
2026-05-04 10:37 35.64684 140.46074 2346 ft 179 kts 329°
2026-05-04 10:37 35.65729 140.45314 2097 ft 171 kts 330°
2026-05-04 10:39 35.71278 140.41292 872 ft 151 kts 330°
2026-05-04 10:39 35.72183 140.40636 670 ft 150 kts 330°
2026-05-04 10:39 35.73084 140.39983 474 ft 149 kts 330°
2026-05-04 10:40 35.73974 140.39337 264 ft 149 kts 329°
2026-05-04 10:40 35.74851 140.38701 158 ft 139 kts 330°
2026-05-04 10:40 35.75549 140.38197 149 ft 90 kts 330°
2026-05-04 10:40 35.75845 140.37984 146 ft 56 kts 330°
2026-05-04 10:41 35.76214 140.37718 144 ft 45 kts 330°
2026-05-04 10:41 35.76453 140.37547 142 ft 29 kts 334°
2026-05-04 10:41 35.76633 140.37485 142 ft 15 kts 356°
2026-05-04 10:41 35.76720 140.37482 144 ft 13 kts
2026-05-04 10:42 35.76762 140.37514 146 ft 6 kts 74°
2026-05-04 10:42 35.76745 140.37576 146 ft 9 kts 130°
2026-05-04 10:42 35.76680 140.37634 146 ft 13 kts 148°
2026-05-04 10:42 35.76594 140.37698 147 ft 15 kts 150°
2026-05-04 10:43 35.76493 140.37772 146 ft 17 kts 150°
2026-05-04 10:44 35.75464 140.38518 146 ft 30 kts 149°
2026-05-04 10:45 35.75308 140.38631 146 ft 24 kts 149°
2026-05-04 10:45 35.75176 140.38745 146 ft 19 kts 114°
2026-05-04 10:45 35.75243 140.38858 146 ft 19 kts 26°
2026-05-04 10:45 35.75370 140.38930 146 ft 21 kts 25°
2026-05-04 10:46 35.75507 140.39008 146 ft 22 kts 25°
2026-05-04 10:46 35.75658 140.39093 146 ft 23 kts 26°
2026-05-04 10:46 35.75726 140.39168 146 ft 11 kts 57°
2026-05-04 10:46 35.75779 140.39262 147 ft 14 kts 47°
2026-05-04 10:47 35.75875 140.39331 147 ft 17 kts 25°
2026-05-04 10:47 35.75988 140.39395 146 ft 18 kts 25°
2026-05-04 10:47 35.76115 140.39465 146 ft 20 kts 25°
2026-05-04 10:47 35.76252 140.39542 146 ft 22 kts 25°
2026-05-04 10:49 35.77387 140.39818 146 ft 25 kts 329°
2026-05-04 10:49 35.77520 140.39719 147 ft 17 kts 329°
2026-05-04 10:50 35.77624 140.39629 146 ft 18 kts 335°
2026-05-04 10:51 35.77546 140.39392 146 ft 0 kts 232°
2026-05-04 10:52 35.77542 140.39388 146 ft 1 kts 235°
2026-05-04 10:52 35.77536 140.39372 146 ft 2 kts 240°
2026-05-04 10:52 35.77529 140.39357 146 ft 1 kts 240°